"Pseudo-MPEC" for P12oO5A

Created 2026 Aug 7 13:35:06 UT using Find_Orb

Click here for an explanation of pseudo-MPECs

 
 Astrometry: 
     P12oO5A 0C2026 08 03.46049520 40 25.292-12 04 11.26   ~85H5 19.02GVNEOCPF52
     P12oO5A 0C2026 08 03.47393520 40 45.872-12 05 23.63   ~85H5 19.03GVNEOCPF52
     P12oO5A*0C2026 08 04.42565421 11 58.316-13 40 19.20   ~84Cox19.36wXNEOCPF51
     P12oO5A 0C2026 08 04.43780821 12 24.269-13 41 38.40   ~84Co 18.96wXNEOCPF51
     P12oO5A 0C2026 08 04.44997121 12 50.234-13 42 56.79   ~84Co 19.23wXNEOCPF51
     P12oO5A 0C2026 08 04.55591221 16 42.103-13 54 04.31   ~84Go 18.66GVNEOCPF52
     P12oO5A 0C2026 08 04.55655521 16 43.567-13 54 08.31   ~84Go 19.33GVNEOCPF52
     P12oO5A 0C2026 08 04.55719521 16 45.002-13 54 12.14   ~84Go 19.07GVNEOCPF52
     P12oO5A 0B2026 08 04.94870721 33 43.314-14 32 20.61   ~851Z 19.0 GWNEOCPM21
     P12oO5A 0B2026 08 04.95438021 33 57.782-14 32 58.90   ~851Z       WNEOCPM21
     P12oO5A 0B2026 08 04.95977321 34 11.540-14 33 35.15   ~851Z       WNEOCPM21
     P12oO5A KB2026 08 04.98848 21 35 21.79 -14 44 14.8    ~858K 19.0 GXNEOCPM45
     P12oO5A KB2026 08 04.99126 21 35 29.04 -14 44 33.3    ~858K 18.8 GXNEOCPM45
     P12oO5A KB2026 08 04.99393 21 35 36.09 -14 44 50.6    ~858K 18.9 GXNEOCPM45
     P12oO5A KB2026 08 05.04668921 38 05.17 -14 50 40.5    ~851Z 18.6 GXNEOCPI93
     P12oO5A KB2026 08 05.04943121 38 12.47 -14 50 58.7    ~851Z 18.5 GXNEOCPI93
     P12oO5A KB2026 08 05.05214321 38 19.71 -14 51 16.7    ~851Z 19.3 GXNEOCPI93
     P12oO5A 0C2026 08 05.48321921 59 56.848-15 36 40.34   ~85Go 18.72GVNEOCPF51
     P12oO5A 0C2026 08 05.48404221 59 59.320-15 36 45.61   ~85Go 19.32GVNEOCPF51
     P12oO5A KB2026 08 05.61438222 07 16.514-15 51 59.40   ~8775 18.6 GXNEOCPQ06
     P12oO5A KB2026 08 05.61732422 07 25.911-15 52 18.94   ~8775 19.0 GXNEOCPQ06
     P12oO5A KB2026 08 05.62011222 07 34.785-15 52 37.42   ~8775 18.7 GXNEOCPQ06
     P12oO5A KB2026 08 05.69018922 11 20.143-15 59 57.55   ~85HZ 19.0 VZNEOCP900
     P12oO5A KB2026 08 05.70171422 11 57.586-16 01 07.25   ~85HZ 19.2 VZNEOCP900
     P12oO5A KB2026 08 05.98603422 29 01.397-16 29 49.42   ~860Z 19.1 GXNEOCP595
     P12oO5A KB2026 08 05.99276522 29 25.346-16 30 28.33   ~860Z 19.3 GXNEOCP595
     P12oO5A 0B2026 08 06.03332622 31 52.442-16 34 12.17   ~8695       WNEOCP204
     P12oO5A 0B2026 08 06.04216422 32 24.271-16 34 59.98   ~8695 18.9 GWNEOCP204
     P12oO5A KB2026 08 06.06762822 33 56.042-16 37 29.96   ~866K 18.14VZNEOCPK74
     P12oO5A KB2026 08 06.08352322 34 53.993-16 38 51.79   ~866K 19.83VZNEOCPK74
     P12oO5A 0C2026 08 06.08384822 34 59.986-16 39 03.31   ~862Z 18.6 GWNEOCPJ95
     P12oO5A 0C2026 08 06.09223922 35 30.682-16 39 46.62   ~862Z 19.1 GWNEOCPJ95
     P12oO5A 0C2026 08 06.09625722 35 45.432-16 40 07.10   ~862Z 18.7 GWNEOCPJ95
     P12oO5A bB2026 08 07.02910123 40 57.34 -17 29 55.5    ~871Z 19.0 GVNEOCPL01
     P12oO5A KB2026 08 07.03228023 41 11.993-17 30 15.52   ~875Z 19.60VZNEOCPK74
     P12oO5A bB2026 08 07.03359323 41 16.75 -17 29 58.8    ~871Z 19.3 GVNEOCPL01
     P12oO5A KB2026 08 07.05606823 42 55.092-17 30 35.10   ~875Z 19.73VZNEOCPK74
     P12oO5A KB2026 08 07.07840923 44 32.062-17 30 48.24   ~875Z 19.27VZNEOCPK74

Station data:
(204) Schiaparelli Observatory  (N45.868292 E8.769720)  Italy.  Observer L.
   Buzzi. 0.84-m f/3.5 reflector + CCD.
(595) Farra d'Isonzo  (N45.915731 E13.525780)  Italy.  Observers S. Aschi, E.
   Pettarin, G. Panterotto. Measurers S. Aschi, E. Pettarin. 0.40-m f/5.15
   reflector + CCD.
(900) Moriyama  (N35.049753 E135.989940)  Japan.  Observer Y. Ikari. 0.26-m
   f/7.0 reflector + CCD.
(F51) Pan-STARRS 1, Haleakala  (N20.707234 W156.255910)  US/Hawaii.
   Observers J. Herman, T. Lowe, P. Minguez, A. Schultz, I. Smith. Measurers
   K. Chambers, T. de Boer, J. Fairlamb, H. Gao, M. Huber, C.-C. Lin, E.
   Magnier, Y. Ramanjooloo, R. Wainscoat, R. Weryk. 1.8-m Ritchey-Chrétien +
   CCD.
(F52) Pan-STARRS 2, Haleakala  (N20.707382 W156.255910)  US/Hawaii.
   Observers J. Herman, T. Lowe, P. Minguez, A. Schultz, I. Smith. Measurers
   K. Chambers, T. de Boer, J. Fairlamb, H. Gao, M. Huber, C.-C. Lin, E.
   Magnier, Y. Ramanjooloo, R. Wainscoat, R. Weryk. 1.8-m Ritchey-Chrétien +
   CCD.
(I93) St Pardon de Conques  (N44.558670 W0.202960)  France.  Observers F.
   Losse, W. D'Anna. Measurer F. Losse. 0.40-m f/3.7 reflector + CCD.
(J95) Great Shefford  (N51.474969 W1.447003)  UK/England.  Observer P.
   Birtwhistle. 0.41-m f/6.3 Schmidt-Cassegrain + CCD.
(K74) Muensterschwarzach Observatory, Schwarzach  (N49.805276 E10.236400)
   Germany.  Observer C. Gerhard. 0.30-m f/3.75 Newtonian reflector + CCD.
(L01) Višnjan Observatory, Tičan  (N45.290897 E13.749300)  Croatia.
   Observers K. Korlević, L. Poropat. Measurer K. Korlevic. 1.0-m f/2.9
   reflector + CCD.
(M21) Schiaparelli Southern Observatory, Hakos  (S23.236549 E16.361440)
   Namibia.  Observers A. Aletti, F. Bellini, L. Buzzi, G. Galli. Measurer L.
   Buzzi. 0.36-m f/8.4 reflector + CCD.
(M45) Starhopper Observatory, Sfantu Gheorghe  (N45.865494 E25.768890)
   Romania.  Observer F. Ursache. 0.41-m f/7.5 reflector + CMO.
(Q06) Tarui Observatory, Tarui  (N35.394791 E136.495470)  Japan.  Observer H.
   Watanabe. 0.35-m f/1.9 Schmidt-Cassegrain + CMO.

Orbital elements:  P12oO5A
   Perihelion 2026 Sep 2.001534 +/- 0.00339 TT =  0:02:12.5 (JD 2461285.501534)
Epoch 2026 Aug  7.0 TT = JDT 2461259.5   Earth MOID: 0.0097      AutoNEOCP
M 349.703377340 +/- 0.009           (J2000 ecliptic)
n   0.396000591 +/- 0.000325        Peri.  213.253857 +/- 0.0006
a   1.836561571 +/- 0.00101         Node   132.377985 +/- 0.00007
e   0.46619841 +/- 0.000298         Incl.    5.249222 +/- 0.0024
P   2.489/909.072d         H 26.94  G  0.15   U  7.3
q 0.980359472 +/- 1.15e-5    Q 2.692763670 +/- 0.00202
37 of 38 observations 2026 Aug. 3-7; mean residual 0".33
Residuals in arcseconds: 
260803 F52  .24+  .04-    260804 M45  .25+  .36+    260806 204  .47-  .02+    
260803 F52  .35+  .14-    260805 I93  .09-  .34+    260806 204  .25-  .07+    
260804 F51( 1.7-  .36+)   260805 I93  .24-  .36+    260806 K74  .23-  .02+    
260804 F51  .27-  .00     260805 I93  .20-  .35+    260806 K74  .87-  .20+    
260804 F51  .29-  .13+    260805 F51  .09+  .10-    260806 J95  .43+  .36-    
260804 F52  .36-  .01-    260805 F51  .14-  .07-    260806 J95  .08-  .06-    
260804 F52  .11-  .05-    260805 Q06  .09-  .39+    260806 J95  .05+  .17+    
260804 F52  .19-  .07+    260805 Q06  .33+  .03+    260807 L01  .70-  .00     
260804 M21  .32-  .06+    260805 Q06  .22+  .32-    260807 K74  .38-  .02-    
260804 M21  .08-  .05+    260805 900  .30-  .11-    260807 L01  .43-  .80+    
260804 M21  .07-  .08+    260805 900  .45-  .33+    260807 K74  .47-  .34-    
260804 M45  .01+  .21+    260805 595  .97+  .63+    260807 K74  .03+  .56-    
260804 M45  .46-  .06+    260805 595  .85+  .08-    

Ephemerides (geocentric):
Date (UTC) HH   RA             Dec           delta  r     elong  mag " sig PA
---- --------  ------------   ------------  ------ ------ -----  --- --------
2026 08 07 14  00 22 43.498   -17 12 14.15  .01562 1.0250 133.7 19.7 .310 177
2026 08 07 15  00 25 52.776   -17 10 11.99  .01563 1.0248 133.0 19.7 .311 178
2026 08 07 16  00 29 01.731   -17 07 59.04  .01564 1.0247 132.3 19.7 .312 178
2026 08 07 17  00 32 10.295   -17 05 35.41  .01565 1.0245 131.5 19.8 .313 179
2026 08 07 18  00 35 18.397   -17 03 01.24  .01567 1.0244 130.8 19.8 .314 179
2026 08 07 19  00 38 25.969   -17 00 16.69  .01569 1.0243 130.1 19.8 .315   0
2026 08 07 20  00 41 32.945   -16 57 21.92  .01571 1.0241 129.4 19.8 .317   0
2026 08 07 21  00 44 39.258   -16 54 17.14  .01573 1.0240 128.7 19.9 .318   1
2026 08 07 22  00 47 44.844   -16 51 02.52  .01576 1.0238 128.0 19.9 .319   1
2026 08 07 23  00 50 49.640   -16 47 38.30  .01579 1.0237 127.3 19.9 .320   2
2026 08 08 00  00 53 53.586   -16 44 04.68  .01582 1.0236 126.6 19.9 .321   3
2026 08 08 01  00 56 56.621   -16 40 21.92  .01586 1.0234 125.9 19.9 .322   3
2026 08 08 02  00 59 58.689   -16 36 30.25  .01590 1.0233 125.2 20.0 .323   4
2026 08 08 03  01 02 59.733   -16 32 29.93  .01594 1.0231 124.5 20.0 .324   5
2026 08 08 04  01 05 59.701   -16 28 21.23  .01598 1.0230 123.8 20.0 .325   5
2026 08 08 05  01 08 58.540   -16 24 04.41  .01602 1.0229 123.2 20.0 .327   6
2026 08 08 06  01 11 56.203   -16 19 39.77  .01607 1.0227 122.5 20.1 .328   7
2026 08 08 07  01 14 52.641   -16 15 07.58  .01612 1.0226 121.8 20.1 .329   8
2026 08 08 08  01 17 47.811   -16 10 28.14  .01617 1.0224 121.1 20.1 .331   9
2026 08 08 09  01 20 41.669   -16 05 41.74  .01623 1.0223 120.5 20.1 .332  10
2026 08 08 10  01 23 34.176   -16 00 48.69  .01629 1.0222 119.8 20.2 .334  10
2026 08 08 11  01 26 25.293   -15 55 49.27  .01635 1.0220 119.2 20.2 .336  11
2026 08 08 12  01 29 14.986   -15 50 43.80  .01641 1.0219 118.5 20.2 .338  12
2026 08 08 13  01 32 03.221   -15 45 32.57  .01647 1.0218 117.9 20.3 .340  13
2026 08 08 14  01 34 49.968   -15 40 15.89  .01654 1.0216 117.2 20.3 .342  14
2026 08 08 15  01 37 35.197   -15 34 54.07  .01661 1.0215 116.6 20.3 .344  15
2026 08 08 16  01 40 18.883   -15 29 27.39  .01668 1.0214 116.0 20.3 .347  16
2026 08 08 17  01 43 01.002   -15 23 56.17  .01675 1.0212 115.4 20.4 .349  17
2026 08 08 18  01 45 41.531   -15 18 20.69  .01683 1.0211 114.7 20.4 .352  18
2026 08 08 19  01 48 20.452   -15 12 41.25  .01691 1.0210 114.1 20.4 .354  19
2026 08 08 20  01 50 57.746   -15 06 58.13  .01699 1.0208 113.5 20.4 .357  20
2026 08 08 21  01 53 33.397   -15 01 11.63  .01707 1.0207 112.9 20.5 .360  20
2026 08 08 22  01 56 07.394   -14 55 22.01  .01715 1.0205 112.3 20.5 .363  21
2026 08 08 23  01 58 39.723   -14 49 29.54  .01724 1.0204 111.8 20.5 .366  22
2026 08 09 00  02 01 10.375   -14 43 34.51  .01733 1.0203 111.2 20.6 .370  23
2026 08 09 01  02 03 39.343   -14 37 37.16  .01742 1.0201 110.6 20.6 .373  24
2026 08 09 02  02 06 06.620   -14 31 37.75  .01751 1.0200 110.0 20.6 .377  25
2026 08 09 03  02 08 32.202   -14 25 36.53  .01760 1.0199 109.5 20.7 .380  26
2026 08 09 04  02 10 56.086   -14 19 33.74  .01770 1.0197 108.9 20.7 .384  27
2026 08 09 05  02 13 18.271   -14 13 29.61  .01780 1.0196 108.4 20.7 .388  28
2026 08 09 06  02 15 38.757   -14 07 24.37  .01790 1.0195 107.8 20.7 .392  28
2026 08 09 07  02 17 57.546   -14 01 18.24  .01800 1.0193 107.3 20.8 .396  29
2026 08 09 08  02 20 14.640   -13 55 11.42  .01810 1.0192 106.8 20.8 .400  30
2026 08 09 09  02 22 30.045   -13 49 04.13  .01820 1.0191 106.3 20.8 .404  31
2026 08 09 10  02 24 43.764   -13 42 56.55  .01831 1.0189 105.7 20.9 .409  32
2026 08 09 11  02 26 55.806   -13 36 48.88  .01842 1.0188 105.2 20.9 .413  32
2026 08 09 12  02 29 06.178   -13 30 41.29  .01853 1.0187 104.7 20.9 .417  33
2026 08 09 13  02 31 14.888   -13 24 33.97  .01864 1.0186 104.2 20.9 .422  34